Regional Weather Roundup
Issued by NWS

Home | Current Version | Previous Version | Graphics & Text | Print | Product List | Glossary On
Versions: 1 2 3 4 5 6 7 8 9 10 11 12 13 14 15 16 17 18 19 20 21 22 23 24 25 26 27 28 29 30 31 32 33 34 35 36 37 38 39 40 41 42 43 44 45 46 47 48 49 50
000
ASUS43 KOAX 261602
RWRNE

WEATHER ROUNDUP FOR NEBRASKA
NATIONAL WEATHER SERVICE OMAHA NE
1000 AM CST FRI DEC 26 2014

NOTES: SATELLITE DATA IS BEING USED TO AUGMENT CLOUD COVER ABOVE
       12000 FEET.
       "FAIR" INDICATES FEW OR NO CLOUDS BELOW 12,000 FEET WITH NO
       SIGNIFICANT WEATHER AND/OR OBSTRUCTIONS TO VISIBILITY.

  * THESE STATIONS DO NOT REPORT WEATHER SUCH AS RAIN...SNOW OR FOG.

NEZ001>004-019>022-054>056-261700-
NEBRASKA PANHANDLE

CITY           SKY/WX    TMP DP  RH WIND       PRES   REMARKS
SCOTTSBLUFF    LGT SNOW  18  15  88 W3        30.04R FOG
ALLIANCE       CLOUDY    18  14  84 N14       30.02S WCI   4
CHADRON        CLOUDY    20  16  84 NE5       30.09R WCI  13
KIMBALL        LGT SNOW  16  14  92 N7        29.96R VSB 1   WCI   6
SIDNEY         LGT SNOW  17  13  84 N10       30.00R FOG     WCI   5
$$

NEZ057>060-069>072-079>082-261700-
SOUTHWEST NEBRASKA

CITY           SKY/WX    TMP DP  RH WIND       PRES   REMARKS
NORTH PLATTE   LGT SNOW  23  19  85 N13       30.04S VSB 3/4 WCI  11
IMPERIAL       SNOW      22  18  85 N17       30.01F VSB 1/2 WCI   8
LEXINGTON      CLOUDY    27  21  79 N22       30.00F WCI  13
MCCOOK         LGT SNOW  26  21  81 N20       30.01S WCI  12
OGALLALA       FLURRIES  23  19  87 N13       30.05R WCI  11
$$

NEZ005>010-023>029-035>040-094-261700-
NORTH CENTRAL NEBRASKA

CITY           SKY/WX    TMP DP  RH WIND       PRES   REMARKS
VALENTINE      CLOUDY    22  19  89 N13       30.08R WCI  10
AINSWORTH      CLOUDY    23  21  93 N12       30.07R WCI  11
BROKEN BOW     CLOUDY    25  20  81 N17G23    30.04R WCI  12
O`NEILL        CLOUDY    25  24  95 N14       30.07R WCI  13
ORD            CLOUDY    26  20  77 N18       30.05R WCI  13
THEDFORD       CLOUDY    23  20  87 N12G20    30.05R WCI  12
$$

NEZ041-046>049-061>064-073>077-083>087-261700-
SOUTH CENTRAL NEBRASKA

CITY           SKY/WX    TMP DP  RH WIND       PRES   REMARKS
GRAND ISLAND   CLOUDY    27  22  81 N20       30.02R WCI  13
AURORA         CLOUDY    28  26  91 N22G29    30.01R WCI  15
HASTINGS       CLOUDY    28  22  78 N18G26    29.99R WCI  15
HEBRON         CLOUDY    30  26  83 N13G20    30.01R WCI  20
HOLDREGE       CLOUDY    27  22  81 N15G24    30.02R WCI  15
KEARNEY *      CLOUDY    27  19  74 NW28      29.99F WCI  11
YORK           CLOUDY    28  27  93 N20G26    30.01R WCI  15
$$

NEZ011>018-030>034-042>045-261700-
NORTHEAST NEBRASKA

CITY           SKY/WX    TMP DP  RH WIND       PRES   REMARKS
NORFOLK        CLOUDY    28  25  88 N17       30.03R WCI  16
ALBION         CLOUDY    28  22  79 N13       30.05R WCI  17
BLAIR          CLOUDY    32  31  95 N16G22    29.98R FOG     WCI  22
COLUMBUS *     CLOUDY    28  21  74 N15       30.03R WCI  17
FREMONT        CLOUDY    32  30  92 N13G18    30.01R WCI  23
TEKAMAH        CLOUDY    33  29  85 N17       30.02R WCI  22
WAYNE          CLOUDY    28  25  88 N17       30.04R WCI  16
$$

NEZ050>053-065>068-078-088>093-261700-
SOUTHEAST NEBRASKA

CITY           SKY/WX    TMP DP  RH WIND       PRES   REMARKS
LINCOLN        CLOUDY    32  28  85 N14       30.03R WCI  22
OMAHA EPPLEY   CLOUDY    33  31  92 N14       30.00R FOG     WCI  23
BEATRICE       CLOUDY    32  30  91 N17       29.98S WCI  21
FALLS CITY     CLOUDY    34  32  92 N10       29.97R WCI  26
NEBRASKA CITY  CLOUDY    34  33  96 N14       29.96S FOG     WCI  24
PLATTSMOUTH    CLOUDY    33  31  91 N9G18     29.98R FOG     WCI  26
$$

NEZ044-045-051>053-067-261700-
OMAHA AREA

CITY           SKY/WX    TMP DP  RH WIND       PRES   REMARKS
OMAHA EPPLEY   CLOUDY    33  31  92 N14       30.00R FOG     WCI  23
BLAIR          CLOUDY    32  31  95 N16G22    29.98R FOG     WCI  22
FREMONT        CLOUDY    32  30  92 N13G18    30.01R WCI  23
MILLARD        CLOUDY    33  31  92 N7        30.00R FOG     WCI  27
OFFUTT AFB     CLOUDY    34  31  90 N8        29.99R WCI  27
PLATTSMOUTH    CLOUDY    33  31  91 N9G18     29.98R FOG     WCI  26
WAHOO          CLOUDY    32  28  86 N20       30.00S WCI  20
$$


USA.gov is the U.S. government's official web portal to all federal, state and local government web resources and services.